STARLINK-4720, 53800

Orbit data source: Space-Track

STARLINK-4720, 53800 is a payload satellite owned by SpaceX/Seattle (US) in LEO that was launched on Sun, 11 Sep 2022 UTC via an FALCON 9 launch vehicle from the Air Force Eastern Test Range (AFETR). Payloads include a variety of satellites, spacecraft, and rockets equipped with specific instruments for various scientific and technological missions. These include communications satellites like Starlink; space stations such as the ISS; scientific satellites like the Hubble; Earth observation satellites from companies like Planet Labs, Umbra, and HawkEye 360; GPS; miniature CubeSats for education and research; and military/defense satellites.

Loading next visibility...
STARLINK-4720 details
Identifier
53800, 2022-111AD
Orbit
LEO
Last TLE update14 hours ago
Origin
Flag of USSpaceX/Seattle (US)
ManufacturerSpaceX/Seattle
MissionOperational Commercial Communications
Bus & MotorSTARLINK, Unknown motor
Mass305 kg wet, ~290 kg dry
Launch date (UTC)
2022-09-11 (2 years ago)
Launch vehicle
FALCON 9
Launch site
Air Force Eastern Test Range (AFETR)
Object type
Payload
Rocket body
Debris
Shape & HBRBox + 1 Pan, 8.86 m
Radar Cross Section13.562 m², Large (>1 m²)

Expand to show TLE details & history

TLE from 14 hours ago
0 STARLINK-4720
1 53800U 22111AD  24356.65278264  .00000052  00000-0  21367-4 0  9993
2 53800  53.2190  92.9354 0001359  96.9782 263.1365 15.08841166126936
Epoch: 2024-12-21T15:40Z
Definitive object data (Epoch: 2024-12-21T15:40:00.42Z)
Latitude0.00002°
Longitude127.2328°
Altitude540.75 km
Speed7.593 km/s
True Right ascension06h 11m 44s
True Declination0° 00' 00"
Sunlit
Object was in full shadow at TLE epoch
Visualization TLE readout
Latitude23.58818°
Longitude143.47478°
Altitude540.218 km
Speed7.596 km/s
Apparent Right ascension10h 35m 38s
Apparent Declination-21° 30' 10"
Sunlit
Object is in full shadow
Visualization observer readout
Local Sidereal Time05:11:04
Azimuth112.088° ESE
Elevation-7.199°
Doppler factor1
Orbital elements
Apogee altitude540.925 km
Perigee altitude539.044 km
Semi-major axis6,918.122 km
Eccentricity0.0001359
Inclination53.219°
RAAN92.9354°
Arg. of periapsis96.9782°
True anomaly263.12104°
Mean anomaly263.1365°
Eccentric anomaly263.12877°
Mean motion3.77191 °/min
BSTAR0.000021367
Orbital period95.44 mins
Loading maneuver chart data...
Loading historical data...
Loading historical data...
Loading historical data...
Loading historical data...
Loading historical data...
Loading historical data...
Loading historical data...

STARLINK-4720 Visibility forecast

Observer location: undefined°, undefined

Span
Click to sort rows by Start time (UTC) header in descending order
Start Az.
Max El. time (UTC)
Max El. Az.
Max El.
End time (UTC)
End Az.
6 mins2024-12-22 09:20:22.193Z225.071° WSW2024-12-22 09:23:22.193Z81.328° E44.277°2024-12-22 09:26:22.193Z51.772° ENE
4 mins2024-12-22 11:01:22.193Z306.472° NW2024-12-22 11:03:22.193Z347.739° N19.794°2024-12-22 11:05:22.193Z21.488° NNE
4 mins2024-12-22 14:22:22.193Z347.987° N2024-12-22 14:24:22.193Z24.967° NE18.027°2024-12-22 14:26:22.193Z58.964° ENE
6 mins2024-12-22 16:01:22.193Z314.803° NW2024-12-22 16:04:22.193Z90.189° ESE43.178°2024-12-22 16:07:22.193Z124.951° SE
|